SKW5728 KBZN-KLAX

Flight info

Callsign SKW5728
Flight time 2h 15m
Altitude 31000
Route BGSKY2 DBS PROXI Q842 WINEN Q73 HAKMN ANJLL4
Aircraft E75L/M-SDE3GILORVW/S

Departure

Time 2026-05-03 23:03
Airport Bozeman Yellowstone International Airport (KBZN)

Arrival

Time 2026-05-04 01:19
Airport Los Angeles International Airport (KLAX)
Time Latitude Longitude Altitude Speed Heading
2026-05-03 22:44 45.77909 -111.16087 4470 ft 0 kts 227°
2026-05-03 22:56 45.77908 -111.16087 4475 ft 0 kts 227°
2026-05-03 22:56 45.77909 -111.16086 4473 ft 0 kts 227°
2026-05-03 22:57 45.77922 -111.16067 4470 ft 2 kts 227°
2026-05-03 22:57 45.77931 -111.16050 4470 ft 2 kts 245°
2026-05-03 22:57 45.77934 -111.16036 4470 ft 2 kts 261°
2026-05-03 22:57 45.77932 -111.16009 4470 ft 2 kts 292°
2026-05-03 22:58 45.77927 -111.15997 4470 ft 2 kts 307°
2026-05-03 22:58 45.77922 -111.15988 4470 ft 0 kts 316°
2026-05-03 22:59 45.77928 -111.15996 4470 ft 2 kts 316°
2026-05-03 23:00 45.77938 -111.16009 4470 ft 4 kts 317°
2026-05-03 23:00 45.77989 -111.16070 4469 ft 10 kts 322°
2026-05-03 23:00 45.78054 -111.16147 4468 ft 13 kts 317°
2026-05-03 23:00 45.78152 -111.16165 4467 ft 17 kts 327°
2026-05-03 23:01 45.78247 -111.16291 4465 ft 19 kts 311°
2026-05-03 23:01 45.78347 -111.16428 4462 ft 20 kts 317°
2026-05-03 23:01 45.78452 -111.16579 4458 ft 22 kts 324°
2026-05-03 23:01 45.78547 -111.16751 4455 ft 22 kts 282°
2026-05-03 23:02 45.78583 -111.16754 4455 ft 11 kts 123°
2026-05-03 23:02 45.78505 -111.16643 4457 ft 36 kts 135°
2026-05-03 23:02 45.78316 -111.16384 4463 ft 77 kts 135°
2026-05-03 23:02 45.77561 -111.15328 4478 ft 148 kts 135°
2026-05-03 23:03 45.76784 -111.14142 4676 ft 170 kts 132°
2026-05-03 23:03 45.75975 -111.12807 5062 ft 183 kts 143°
2026-05-03 23:03 45.74812 -111.12153 5578 ft 183 kts 181°
2026-05-03 23:03 45.73603 -111.12445 6127 ft 180 kts 202°
2026-05-03 23:04 45.72474 -111.13203 6296 ft 178 kts 217°
2026-05-03 23:04 45.71463 -111.14229 6353 ft 177 kts 219°
2026-05-03 23:04 45.70528 -111.15345 6396 ft 175 kts 225°
2026-05-03 23:04 45.69632 -111.16539 6429 ft 175 kts 225°
2026-05-03 23:05 45.68683 -111.17659 6411 ft 184 kts 218°
2026-05-03 23:05 45.67558 -111.18706 6634 ft 203 kts 208°
2026-05-03 23:05 45.66205 -111.19536 6947 ft 217 kts 204°
2026-05-03 23:05 45.64894 -111.20576 7397 ft 220 kts 226°
2026-05-03 23:06 45.64043 -111.22385 7822 ft 224 kts 252°
2026-05-03 23:06 45.63757 -111.24656 7961 ft 244 kts 270°
2026-05-03 23:06 45.63718 -111.27109 8414 ft 252 kts 269°
2026-05-03 23:06 45.63511 -111.29677 8658 ft 270 kts 262°
2026-05-03 23:07 45.63157 -111.32426 8969 ft 284 kts 261°
2026-05-03 23:07 45.62754 -111.35177 9457 ft 290 kts 260°
2026-05-03 23:07 45.62317 -111.38006 10048 ft 291 kts 259°
2026-05-03 23:07 45.62019 -111.39893 10447 ft 292 kts 259°
2026-05-03 23:08 45.61565 -111.42729 10896 ft 298 kts 259°
2026-05-03 23:08 45.61091 -111.45670 11214 ft 309 kts 259°
2026-05-03 23:08 45.60428 -111.49764 11617 ft 323 kts 259°
2026-05-03 23:08 45.59909 -111.52954 11938 ft 332 kts 259°
2026-05-03 23:09 45.59382 -111.56184 12263 ft 340 kts 258°
2026-05-03 23:09 45.58837 -111.59489 12641 ft 346 kts 256°
2026-05-03 23:09 45.57735 -111.62552 13083 ft 353 kts 231°
2026-05-03 23:09 45.55880 -111.64858 13603 ft 355 kts 217°
2026-05-03 23:10 45.53693 -111.66566 14089 ft 359 kts 204°
2026-05-03 23:10 45.51308 -111.67709 14534 ft 362 kts 200°
2026-05-03 23:10 45.48962 -111.68945 14945 ft 364 kts 203°
2026-05-03 23:10 45.46605 -111.70309 15361 ft 366 kts 204°
2026-05-03 23:11 45.44243 -111.71722 15777 ft 368 kts 205°
2026-05-03 23:11 45.41893 -111.73144 16181 ft 369 kts 204°
2026-05-03 23:11 45.39514 -111.74591 16592 ft 371 kts 205°
2026-05-03 23:11 45.37153 -111.76027 16990 ft 373 kts 205°
2026-05-03 23:12 45.34771 -111.77475 17364 ft 375 kts 205°
2026-05-03 23:12 45.32360 -111.78941 17741 ft 377 kts 205°
2026-05-03 23:12 45.29932 -111.80370 18111 ft 380 kts 200°
2026-05-03 23:12 45.27397 -111.81342 18443 ft 383 kts 195°
2026-05-03 23:13 45.25662 -111.81928 18668 ft 385 kts 195°
2026-05-03 23:13 45.22176 -111.83112 19100 ft 388 kts 195°
2026-05-03 23:13 45.19534 -111.84010 19430 ft 390 kts 195°
2026-05-03 23:13 45.17765 -111.84611 19651 ft 391 kts 195°
2026-05-03 23:14 45.14231 -111.85812 20088 ft 394 kts 195°
2026-05-03 23:14 45.11573 -111.86715 20400 ft 396 kts 195°
2026-05-03 23:14 45.08907 -111.87619 20698 ft 398 kts 195°
2026-05-03 23:14 45.06217 -111.88531 20997 ft 400 kts 195°
2026-05-03 23:15 45.03492 -111.89453 21286 ft 402 kts 195°
2026-05-03 23:15 45.00758 -111.90378 21549 ft 405 kts 194°
2026-05-03 23:15 44.98042 -111.91296 21821 ft 407 kts 194°
2026-05-03 23:15 44.95256 -111.92236 22073 ft 409 kts 194°
2026-05-03 23:16 44.93432 -111.92851 22256 ft 410 kts 194°
2026-05-03 23:16 44.89708 -111.94106 22589 ft 413 kts 194°
2026-05-03 23:16 44.86872 -111.95060 22829 ft 415 kts 194°
2026-05-03 23:16 44.84055 -111.96007 23059 ft 418 kts 194°
2026-05-03 23:17 44.81215 -111.96960 23308 ft 419 kts 194°
2026-05-03 23:17 44.78393 -111.97907 23557 ft 421 kts 194°
2026-05-03 23:17 44.75517 -111.98872 23813 ft 420 kts 194°
2026-05-03 23:17 44.72705 -111.99813 23883 ft 422 kts 194°
2026-05-03 23:18 44.69855 -112.00766 24147 ft 428 kts 194°
2026-05-03 23:18 44.66936 -112.01742 24570 ft 430 kts 194°
2026-05-03 23:18 44.64024 -112.02714 25045 ft 431 kts 194°
2026-05-03 23:18 44.61127 -112.03680 25455 ft 432 kts 194°
2026-05-03 23:19 44.58186 -112.04659 25847 ft 434 kts 194°
2026-05-03 23:19 44.55248 -112.05637 26197 ft 437 kts 194°
2026-05-03 23:19 44.52294 -112.06619 26549 ft 439 kts 194°
2026-05-03 23:19 44.49300 -112.07613 26910 ft 441 kts 194°
2026-05-03 23:20 44.46317 -112.08602 27258 ft 443 kts 194°
2026-05-03 23:20 44.43307 -112.09600 27601 ft 446 kts 194°
2026-05-03 23:20 44.41306 -112.10262 27823 ft 447 kts 194°
2026-05-03 23:20 44.37259 -112.11601 28250 ft 450 kts 194°
2026-05-03 23:21 44.35196 -112.12283 28483 ft 452 kts 194°
2026-05-03 23:21 44.31143 -112.13620 28939 ft 454 kts 194°
2026-05-03 23:21 44.28060 -112.14636 29263 ft 456 kts 195°
2026-05-03 23:21 44.24979 -112.15650 29564 ft 458 kts 195°
2026-05-03 23:22 44.18715 -112.17709 30225 ft 461 kts 195°
2026-05-03 23:22 44.15583 -112.18737 30524 ft 463 kts 195°
2026-05-03 23:22 44.12446 -112.19766 30834 ft 465 kts 195°
2026-05-03 23:23 44.09346 -112.20762 31036 ft 458 kts 192°
2026-05-03 23:23 44.06170 -112.21360 31061 ft 460 kts 188°
2026-05-03 23:23 43.99778 -112.22343 31057 ft 463 kts 188°
2026-05-03 23:24 43.93360 -112.23333 31052 ft 462 kts 188°
2026-05-03 23:24 43.88003 -112.24158 31046 ft 461 kts 188°
2026-05-03 23:25 43.80586 -112.25298 31050 ft 461 kts 188°
2026-05-03 23:25 43.74194 -112.26277 31046 ft 461 kts 188°
2026-05-03 23:26 43.67812 -112.27254 31043 ft 460 kts 188°
2026-05-03 23:26 43.61430 -112.28228 31039 ft 460 kts 188°
2026-05-03 23:27 43.55042 -112.29202 31034 ft 460 kts 189°
2026-05-03 23:27 43.48706 -112.30164 31029 ft 459 kts 189°
2026-05-03 23:28 43.42373 -112.31126 31031 ft 458 kts 189°
2026-05-03 23:28 43.36023 -112.32086 31039 ft 458 kts 189°
2026-05-03 23:29 43.29728 -112.33038 31037 ft 456 kts 189°
2026-05-03 23:29 43.23406 -112.33991 31040 ft 456 kts 189°
2026-05-03 23:30 43.17105 -112.34938 31040 ft 455 kts 189°
2026-05-03 23:30 43.11879 -112.35723 31037 ft 453 kts 189°
2026-05-03 23:31 43.04566 -112.36819 31034 ft 453 kts 189°
2026-05-03 23:31 42.98335 -112.37750 31031 ft 453 kts 189°
2026-05-03 23:32 42.92075 -112.38685 31038 ft 452 kts 189°
2026-05-03 23:32 42.85804 -112.39619 31041 ft 451 kts 189°
2026-05-03 23:33 42.79573 -112.40544 31056 ft 449 kts 189°
2026-05-03 23:33 42.73393 -112.41460 31058 ft 447 kts 189°
2026-05-03 23:34 42.67189 -112.42379 31061 ft 448 kts 189°
2026-05-03 23:34 42.61015 -112.43291 31066 ft 447 kts 188°
2026-05-03 23:35 42.54821 -112.44203 31079 ft 447 kts 189°
2026-05-03 23:35 42.48646 -112.45113 31079 ft 446 kts 188°
2026-05-03 23:36 42.42516 -112.46012 31083 ft 446 kts 188°
2026-05-03 23:36 42.36345 -112.46916 31072 ft 445 kts 188°
2026-05-03 23:37 42.30216 -112.47813 31083 ft 444 kts 188°
2026-05-03 23:37 42.24081 -112.48708 31082 ft 444 kts 188°
2026-05-03 23:38 42.17922 -112.49605 31078 ft 444 kts 188°
2026-05-03 23:38 42.11776 -112.50499 31065 ft 444 kts 188°
2026-05-03 23:39 42.05652 -112.51387 31061 ft 444 kts 188°
2026-05-03 23:39 41.99520 -112.52275 31053 ft 444 kts 188°
2026-05-03 23:40 41.93363 -112.52649 31048 ft 445 kts 182°
2026-05-03 23:40 41.87207 -112.52711 31049 ft 445 kts 182°
2026-05-03 23:41 41.82036 -112.52764 31044 ft 444 kts 182°
2026-05-03 23:41 41.74816 -112.52839 31038 ft 444 kts 182°
2026-05-03 23:42 41.68630 -112.52903 31041 ft 444 kts 182°
2026-05-03 23:42 41.62460 -112.52966 31048 ft 443 kts 181°
2026-05-03 23:43 41.56302 -112.53030 31056 ft 442 kts 181°
2026-05-03 23:43 41.50152 -112.53093 31062 ft 442 kts 181°
2026-05-03 23:44 41.44056 -112.53155 31055 ft 441 kts 181°
2026-05-03 23:44 41.37897 -112.53219 31043 ft 441 kts 181°
2026-05-03 23:45 41.31800 -112.53281 31022 ft 440 kts 181°
2026-05-03 23:45 41.25655 -112.53362 31000 ft 441 kts 182°
2026-05-03 23:46 41.19524 -112.53612 30998 ft 441 kts 182°
2026-05-03 23:46 41.13365 -112.53854 30994 ft 441 kts 182°
2026-05-03 23:47 41.08281 -112.54053 30994 ft 441 kts 182°
2026-05-03 23:47 41.01168 -112.54330 30998 ft 439 kts 182°
2026-05-03 23:48 40.95073 -112.54566 30991 ft 440 kts 182°
2026-05-03 23:48 40.88908 -112.54805 31004 ft 442 kts 182°
2026-05-03 23:49 40.82829 -112.55041 31001 ft 438 kts 182°
2026-05-03 23:49 40.76699 -112.55278 31007 ft 439 kts 182°
2026-05-03 23:50 40.71652 -112.55473 30997 ft 438 kts 182°
2026-05-03 23:50 40.64550 -112.55746 31001 ft 439 kts 182°
2026-05-03 23:51 40.58454 -112.55981 31008 ft 436 kts 182°
2026-05-03 23:51 40.52413 -112.56213 31013 ft 434 kts 182°
2026-05-03 23:52 40.46358 -112.56445 31023 ft 436 kts 182°
2026-05-03 23:52 40.40303 -112.56677 31034 ft 435 kts 182°
2026-05-03 23:53 40.34241 -112.56908 31043 ft 437 kts 182°
2026-05-03 23:53 40.28172 -112.57140 31048 ft 436 kts 182°
2026-05-03 23:54 40.22100 -112.57370 31051 ft 435 kts 182°
2026-05-03 23:54 40.16082 -112.57599 31058 ft 435 kts 182°
2026-05-03 23:55 40.10071 -112.57827 31056 ft 433 kts 183°
2026-05-03 23:55 40.04046 -112.58054 31059 ft 433 kts 183°
2026-05-03 23:56 39.98009 -112.58351 31055 ft 434 kts 187°
2026-05-03 23:56 39.92208 -112.60384 31061 ft 432 kts 200°
2026-05-03 23:57 39.86566 -112.63018 31039 ft 432 kts 200°
2026-05-03 23:57 39.80920 -112.65633 31027 ft 431 kts 200°
2026-05-03 23:58 39.75254 -112.68253 31013 ft 431 kts 200°
2026-05-03 23:58 39.69615 -112.70856 31005 ft 427 kts 200°
2026-05-03 23:59 39.64057 -112.73416 31007 ft 428 kts 200°
2026-05-03 23:59 39.58435 -112.76002 30998 ft 426 kts 200°
2026-05-04 00:00 39.52837 -112.78573 30996 ft 428 kts 200°
2026-05-04 00:00 39.47224 -112.81145 30989 ft 426 kts 200°
2026-05-04 00:01 39.41616 -112.83711 30989 ft 424 kts 200°
2026-05-04 00:01 39.36048 -112.86255 30998 ft 427 kts 200°
2026-05-04 00:02 39.30498 -112.88786 30998 ft 424 kts 200°
2026-05-04 00:02 39.24938 -112.91317 31000 ft 424 kts 200°
2026-05-04 00:03 39.19412 -112.93829 31009 ft 421 kts 200°
2026-05-04 00:03 39.13911 -112.96325 31002 ft 422 kts 201°
2026-05-04 00:04 39.08400 -112.98822 31001 ft 420 kts 201°
2026-05-04 00:04 39.02861 -113.01326 30999 ft 418 kts 201°
2026-05-04 00:05 38.97374 -113.03804 31003 ft 419 kts 201°
2026-05-04 00:05 38.91866 -113.06287 31005 ft 419 kts 201°
2026-05-04 00:06 38.86374 -113.08758 31010 ft 419 kts 201°
2026-05-04 00:06 38.80896 -113.11219 31018 ft 418 kts 201°
2026-05-04 00:07 38.75423 -113.13673 31013 ft 418 kts 201°
2026-05-04 00:07 38.69941 -113.16129 31018 ft 414 kts 201°
2026-05-04 00:08 38.64475 -113.18571 31033 ft 416 kts 201°
2026-05-04 00:08 38.59040 -113.20995 31046 ft 414 kts 201°
2026-05-04 00:09 38.53574 -113.23429 31051 ft 415 kts 201°
2026-05-04 00:09 38.48118 -113.25854 31064 ft 415 kts 201°
2026-05-04 00:10 38.42693 -113.28262 31059 ft 414 kts 201°
2026-05-04 00:10 38.37273 -113.30664 31063 ft 414 kts 201°
2026-05-04 00:11 38.31868 -113.33056 31062 ft 412 kts 201°
2026-05-04 00:11 38.26417 -113.35464 31062 ft 413 kts 201°
2026-05-04 00:12 38.21025 -113.37842 31066 ft 412 kts 201°
2026-05-04 00:12 38.15601 -113.40231 31064 ft 412 kts 201°
2026-05-04 00:13 38.10228 -113.42592 31062 ft 408 kts 201°
2026-05-04 00:13 38.04833 -113.44960 31066 ft 409 kts 201°
2026-05-04 00:14 37.99475 -113.47308 31055 ft 408 kts 201°
2026-05-04 00:14 37.94125 -113.49644 31039 ft 406 kts 201°
2026-05-04 00:15 37.88538 -113.51161 31057 ft 410 kts 194°
2026-05-04 00:15 37.82976 -113.52502 31050 ft 409 kts 195°
2026-05-04 00:16 37.77398 -113.53848 31052 ft 406 kts 195°
2026-05-04 00:16 37.71774 -113.55204 31046 ft 410 kts 196°
2026-05-04 00:17 37.66203 -113.56542 31047 ft 408 kts 196°
2026-05-04 00:17 37.61560 -113.57658 31042 ft 407 kts 197°
2026-05-04 00:18 37.55043 -113.59222 31048 ft 409 kts 197°
2026-05-04 00:18 37.49448 -113.60561 31061 ft 406 kts 198°
2026-05-04 00:19 37.43887 -113.61891 31039 ft 407 kts 198°
2026-05-04 00:19 37.38322 -113.63219 31026 ft 408 kts 198°
2026-05-04 00:20 37.32704 -113.64558 31011 ft 410 kts 199°
2026-05-04 00:20 37.27119 -113.65887 31002 ft 409 kts 199°
2026-05-04 00:21 37.21487 -113.67226 30982 ft 412 kts 199°
2026-05-04 00:21 37.15859 -113.68562 30959 ft 412 kts 199°
2026-05-04 00:22 37.10275 -113.69885 30942 ft 410 kts 200°
2026-05-04 00:22 37.04644 -113.71320 30932 ft 405 kts 206°
2026-05-04 00:23 36.99471 -113.73766 30944 ft 399 kts 209°
2026-05-04 00:23 36.94281 -113.76285 30933 ft 397 kts 210°
2026-05-04 00:24 36.89130 -113.78781 30936 ft 398 kts 210°
2026-05-04 00:24 36.83957 -113.81283 30939 ft 396 kts 210°
2026-05-04 00:25 36.78776 -113.83786 30947 ft 399 kts 210°
2026-05-04 00:25 36.73591 -113.86286 30920 ft 400 kts 210°
2026-05-04 00:26 36.68431 -113.88772 30922 ft 399 kts 210°
2026-05-04 00:26 36.63314 -113.91389 30899 ft 392 kts 213°
2026-05-04 00:27 36.58267 -113.94192 30900 ft 397 kts 212°
2026-05-04 00:27 36.53221 -113.96977 30906 ft 396 kts 213°
2026-05-04 00:28 36.48201 -113.99743 30907 ft 395 kts 212°
2026-05-04 00:28 36.43153 -114.02522 30882 ft 396 kts 213°
2026-05-04 00:29 36.38392 -114.05726 30868 ft 388 kts 220°
2026-05-04 00:29 36.33799 -114.09261 30852 ft 388 kts 220°
2026-05-04 00:30 36.29194 -114.12796 30855 ft 390 kts 220°
2026-05-04 00:30 36.24600 -114.16316 30853 ft 388 kts 220°
2026-05-04 00:31 36.20024 -114.19819 30861 ft 388 kts 220°
2026-05-04 00:31 36.15411 -114.23344 30854 ft 389 kts 220°
2026-05-04 00:32 36.10800 -114.26863 30831 ft 387 kts 220°
2026-05-04 00:32 36.06744 -114.31066 30815 ft 372 kts 234°
2026-05-04 00:33 36.01552 -114.38284 30780 ft 372 kts 233°
2026-05-04 00:34 35.98108 -114.43051 30772 ft 373 kts 234°
2026-05-04 00:34 35.94634 -114.47855 30786 ft 372 kts 233°
2026-05-04 00:35 35.91183 -114.52619 30784 ft 373 kts 233°
2026-05-04 00:35 35.87718 -114.57395 30784 ft 373 kts 234°
2026-05-04 00:36 35.84243 -114.62180 30790 ft 375 kts 233°
2026-05-04 00:36 35.80782 -114.66936 30793 ft 375 kts 233°
2026-05-04 00:37 35.77279 -114.71744 30795 ft 372 kts 233°
2026-05-04 00:37 35.73810 -114.76501 30790 ft 373 kts 233°
2026-05-04 00:38 35.70338 -114.81253 30791 ft 375 kts 233°
2026-05-04 00:38 35.66862 -114.86004 30802 ft 374 kts 233°
2026-05-04 00:39 35.63412 -114.90727 30812 ft 376 kts 233°
2026-05-04 00:39 35.59907 -114.95521 30824 ft 373 kts 233°
2026-05-04 00:40 35.56418 -115.00285 30849 ft 375 kts 233°
2026-05-04 00:40 35.52938 -115.05032 30867 ft 375 kts 233°
2026-05-04 00:41 35.49392 -115.09795 30866 ft 376 kts 232°
2026-05-04 00:41 35.45821 -115.14461 30867 ft 372 kts 232°
2026-05-04 00:42 35.42259 -115.19112 30867 ft 376 kts 232°
2026-05-04 00:42 35.38664 -115.23801 30876 ft 375 kts 232°
2026-05-04 00:43 35.35097 -115.28448 30881 ft 375 kts 232°
2026-05-04 00:43 35.31527 -115.33091 30890 ft 375 kts 232°
2026-05-04 00:44 35.27932 -115.37760 30893 ft 375 kts 232°
2026-05-04 00:44 35.24355 -115.42400 30891 ft 372 kts 232°
2026-05-04 00:45 35.20795 -115.47013 30884 ft 374 kts 232°
2026-05-04 00:45 35.17224 -115.51632 30873 ft 373 kts 232°
2026-05-04 00:46 35.13624 -115.56282 30864 ft 377 kts 232°
2026-05-04 00:46 35.10011 -115.60922 30848 ft 375 kts 232°
2026-05-04 00:47 35.06416 -115.65520 30834 ft 376 kts 232°
2026-05-04 00:47 35.02792 -115.70152 30837 ft 376 kts 231°
2026-05-04 00:48 34.99159 -115.74787 30807 ft 374 kts 232°
2026-05-04 00:48 34.95558 -115.79376 30811 ft 374 kts 231°
2026-05-04 00:49 34.91954 -115.83961 30819 ft 377 kts 232°
2026-05-04 00:49 34.88346 -115.88546 30822 ft 376 kts 232°
2026-05-04 00:50 34.84755 -115.93103 30830 ft 374 kts 231°
2026-05-04 00:50 34.81152 -115.97670 30818 ft 372 kts 232°
2026-05-04 00:51 34.77547 -116.02232 30822 ft 371 kts 231°
2026-05-04 00:51 34.73980 -116.06780 30820 ft 373 kts 232°
2026-05-04 00:52 34.70965 -116.10621 30825 ft 372 kts 232°
2026-05-04 00:52 34.66794 -116.15926 30838 ft 373 kts 232°
2026-05-04 00:53 34.63161 -116.20542 30834 ft 379 kts 232°
2026-05-04 00:53 34.59532 -116.25143 30858 ft 378 kts 232°
2026-05-04 00:54 34.55965 -116.29659 30805 ft 356 kts 232°
2026-05-04 00:54 34.54235 -116.31857 30007 ft 373 kts 231°
2026-05-04 00:54 34.53034 -116.33374 29525 ft 368 kts 231°
2026-05-04 00:54 34.50694 -116.36330 28951 ft 357 kts 231°
2026-05-04 00:55 34.48979 -116.38496 28536 ft 358 kts 231°
2026-05-04 00:55 34.47276 -116.40646 28156 ft 356 kts 232°
2026-05-04 00:55 34.45563 -116.42806 27772 ft 352 kts 231°
2026-05-04 00:55 34.44442 -116.44220 27518 ft 353 kts 232°
2026-05-04 00:56 34.42193 -116.47132 26993 ft 348 kts 236°
2026-05-04 00:56 34.40918 -116.49558 26632 ft 343 kts 245°
2026-05-04 00:56 34.39864 -116.52119 26249 ft 340 kts 246°
2026-05-04 00:56 34.38821 -116.54658 25871 ft 339 kts 246°
2026-05-04 00:57 34.37772 -116.57209 25513 ft 338 kts 245°
2026-05-04 00:57 34.36723 -116.59751 25144 ft 335 kts 246°
2026-05-04 00:57 34.36035 -116.61418 24901 ft 334 kts 245°
2026-05-04 00:57 34.34640 -116.64801 24421 ft 334 kts 245°
2026-05-04 00:58 34.33606 -116.67304 24084 ft 332 kts 244°
2026-05-04 00:58 34.32612 -116.69775 23807 ft 330 kts 245°
2026-05-04 00:58 34.31590 -116.72315 23441 ft 330 kts 245°
2026-05-04 00:58 34.30585 -116.74814 23081 ft 330 kts 245°
2026-05-04 00:59 34.29584 -116.77302 22724 ft 328 kts 245°
2026-05-04 00:59 34.28576 -116.79806 22360 ft 328 kts 244°
2026-05-04 00:59 34.27583 -116.82272 22004 ft 326 kts 244°
2026-05-04 00:59 34.26595 -116.84722 21647 ft 327 kts 244°
2026-05-04 01:00 34.25594 -116.87202 21292 ft 324 kts 244°
2026-05-04 01:00 34.24604 -116.89654 20946 ft 325 kts 244°
2026-05-04 01:00 34.23626 -116.92074 20589 ft 325 kts 245°
2026-05-04 01:00 34.22630 -116.94535 20232 ft 322 kts 244°
2026-05-04 01:01 34.21649 -116.96961 19867 ft 322 kts 244°
2026-05-04 01:01 34.20798 -116.99457 19518 ft 322 kts 250°
2026-05-04 01:01 34.20111 -117.02002 19170 ft 321 kts 251°
2026-05-04 01:01 34.19419 -117.04563 18817 ft 316 kts 251°
2026-05-04 01:02 34.18728 -117.07121 18450 ft 316 kts 251°
2026-05-04 01:02 34.18047 -117.09636 18114 ft 314 kts 251°
2026-05-04 01:02 34.17371 -117.12128 17789 ft 314 kts 251°
2026-05-04 01:02 34.16700 -117.14604 17440 ft 315 kts 251°
2026-05-04 01:03 34.16009 -117.17124 17134 ft 314 kts 251°
2026-05-04 01:03 34.15328 -117.19607 16719 ft 314 kts 251°
2026-05-04 01:03 34.14639 -117.22111 16350 ft 314 kts 251°
2026-05-04 01:03 34.13945 -117.24636 15982 ft 315 kts 250°
2026-05-04 01:04 34.13258 -117.27128 15639 ft 313 kts 250°
2026-05-04 01:04 34.12567 -117.29636 15287 ft 315 kts 250°
2026-05-04 01:04 34.11879 -117.32128 14942 ft 319 kts 250°
2026-05-04 01:04 34.11177 -117.34669 14575 ft 319 kts 250°
2026-05-04 01:05 34.10482 -117.37215 14236 ft 318 kts 251°
2026-05-04 01:05 34.09850 -117.39735 13924 ft 310 kts 251°
2026-05-04 01:05 34.09223 -117.42242 13588 ft 309 kts 250°
2026-05-04 01:05 34.08609 -117.44692 13252 ft 306 kts 251°
2026-05-04 01:06 34.07979 -117.47206 12898 ft 308 kts 251°
2026-05-04 01:06 34.07564 -117.48858 12664 ft 309 kts 251°
2026-05-04 01:06 34.06530 -117.52032 12258 ft 304 kts 245°
2026-05-04 01:06 34.05979 -117.53565 12050 ft 301 kts 245°
2026-05-04 01:07 34.05137 -117.55909 11711 ft 304 kts 245°
2026-05-04 01:07 34.04024 -117.59002 11264 ft 299 kts 245°
2026-05-04 01:07 34.03193 -117.61311 10936 ft 297 kts 245°
2026-05-04 01:07 34.02374 -117.63583 10606 ft 292 kts 245°
2026-05-04 01:08 34.01565 -117.65828 10283 ft 286 kts 244°
2026-05-04 01:08 34.00805 -117.68012 9966 ft 280 kts 251°
2026-05-04 01:08 34.00491 -117.70319 9689 ft 276 kts 261°
2026-05-04 01:08 34.00272 -117.72556 9390 ft 277 kts 261°
2026-05-04 01:09 34.00045 -117.74895 9084 ft 274 kts 261°
2026-05-04 01:09 33.99821 -117.77185 8853 ft 274 kts 261°
2026-05-04 01:09 33.99596 -117.79469 8564 ft 276 kts 261°
2026-05-04 01:09 33.99374 -117.81738 8273 ft 275 kts 261°
2026-05-04 01:10 33.99149 -117.84050 7986 ft 276 kts 261°
2026-05-04 01:10 33.98929 -117.86317 7689 ft 275 kts 261°
2026-05-04 01:10 33.98713 -117.88623 7390 ft 274 kts 261°
2026-05-04 01:10 33.98495 -117.90894 7092 ft 275 kts 261°
2026-05-04 01:11 33.98272 -117.93192 6787 ft 275 kts 262°
2026-05-04 01:11 33.98050 -117.95470 6486 ft 270 kts 261°
2026-05-04 01:11 33.97834 -117.97674 6176 ft 262 kts 261°
2026-05-04 01:11 33.97625 -117.99792 5885 ft 255 kts 261°
2026-05-04 01:12 33.97416 -118.01897 5587 ft 247 kts 262°
2026-05-04 01:12 33.97213 -118.03933 5305 ft 241 kts 262°
2026-05-04 01:12 33.97015 -118.05920 5031 ft 235 kts 261°
2026-05-04 01:12 33.96823 -118.07842 4768 ft 232 kts 262°
2026-05-04 01:13 33.96629 -118.09788 4509 ft 231 kts 261°
2026-05-04 01:13 33.96438 -118.11684 4265 ft 230 kts 262°
2026-05-04 01:13 33.96249 -118.13576 4089 ft 229 kts 262°
2026-05-04 01:13 33.96058 -118.15472 3813 ft 222 kts 262°
2026-05-04 01:14 33.95877 -118.17272 3536 ft 216 kts 262°
2026-05-04 01:14 33.95697 -118.19052 3287 ft 208 kts 263°
2026-05-04 01:14 33.95527 -118.20735 3016 ft 201 kts 263°
2026-05-04 01:14 33.95367 -118.22324 2827 ft 185 kts 262°
2026-05-04 01:15 33.95214 -118.23837 2522 ft 176 kts 262°
2026-05-04 01:15 33.95071 -118.25234 2243 ft 158 kts 262°
2026-05-04 01:15 33.94936 -118.26478 1983 ft 145 kts 261°
2026-05-04 01:15 33.94788 -118.27643 1724 ft 135 kts 259°
2026-05-04 01:16 33.94658 -118.28724 1489 ft 125 kts 261°
2026-05-04 01:16 33.94569 -118.29722 1375 ft 120 kts 261°
2026-05-04 01:16 33.94484 -118.30731 1288 ft 122 kts 261°
2026-05-04 01:16 33.94384 -118.31755 1215 ft 123 kts 261°
2026-05-04 01:17 33.94270 -118.32793 1103 ft 124 kts 261°
2026-05-04 01:17 33.94154 -118.33825 909 ft 124 kts 261°
2026-05-04 01:17 33.94070 -118.34853 699 ft 122 kts 263°
2026-05-04 01:17 33.93964 -118.35862 527 ft 120 kts 261°
2026-05-04 01:18 33.93853 -118.36876 375 ft 121 kts 262°
2026-05-04 01:18 33.93761 -118.37884 209 ft 123 kts 263°
2026-05-04 01:18 33.93663 -118.38903 108 ft 115 kts 262°
2026-05-04 01:18 33.93579 -118.39671 114 ft 67 kts 260°
2026-05-04 01:19 33.93560 -118.40105 120 ft 45 kts 274°
2026-05-04 01:19 33.93609 -118.40326 124 ft 0 kts 304°
2026-05-04 01:20 33.93609 -118.40327 124 ft 0 kts 304°
2026-05-04 01:20 33.93617 -118.40346 124 ft 6 kts 285°
2026-05-04 01:20 33.93624 -118.40440 125 ft 15 kts 265°
2026-05-04 01:21 33.93611 -118.40567 128 ft 15 kts 261°
2026-05-04 01:21 33.93598 -118.40704 130 ft 18 kts 263°
2026-05-04 01:21 33.93602 -118.40871 132 ft 21 kts 305°
2026-05-04 01:21 33.93737 -118.40916 133 ft 20 kts 357°
2026-05-04 01:22 33.93798 -118.40812 133 ft 17 kts 84°
2026-05-04 01:22 33.93817 -118.40662 133 ft 18 kts 84°
2026-05-04 01:22 33.93832 -118.40493 129 ft 22 kts 84°
2026-05-04 01:22 33.93851 -118.40288 124 ft 26 kts 84°
2026-05-04 01:23 33.93877 -118.40060 120 ft 28 kts 82°
2026-05-04 01:23 33.93902 -118.39823 118 ft 26 kts 84°
2026-05-04 01:23 33.93921 -118.39603 113 ft 27 kts 83°
2026-05-04 01:23 33.93943 -118.39371 110 ft 25 kts 82°
2026-05-04 01:24 33.93969 -118.39213 108 ft 12 kts 45°
2026-05-04 01:24 33.94033 -118.39236 108 ft 10 kts 329°
2026-05-04 01:24 33.94094 -118.39290 109 ft 11 kts 326°
2026-05-04 01:24 33.94175 -118.39314 109 ft 12 kts 360°
2026-05-04 01:25 33.94230 -118.39327 109 ft 3 kts 290°
2026-05-04 01:25 33.94228 -118.39359 109 ft 1 kts 269°
2026-05-04 01:25 33.94228 -118.39362 109 ft 0 kts 270°